map of ZCO home
ZCO - Airport
Location
City:  Temuco, Araucanía, Chile
Near (Alt.):Freire
Name:La Araucanía Airport
ICAO:SCQP
IATA:ZCO

Details
Type:Airport (Aerodrome, Airfield)
Latitude:38°55'33"S (-38.925832)
Longitude:72°39'05"W (-72.651388)
Elevation:321 ft (98 m)
Variation:6.53°E (WMM2015 magnetic declination)
-0.13° annual change
Runways:1
Longest:8005 × 148 ft (2440 × 45 m), paved

Weather
METAR:SCQP 100800Z 00000KT CAVOK 09/09 Q1015
TAF:SCQP 100433Z 1006/1106 VRB02KT CAVOK TN09/1010Z TX22/1018Z
TEMPO 1010/1013 9999 FEW010 BKN180
BECMG 1014/1015 SCT030 BKN150
BECMG 1016/1018 26005KT SCT040 BKN100
BECMG 1021/1023 25010KT 7000 -RA BKN016 OVC025
TEMPO 1100/1104 28005KT 4000 -TS RA SCT010CB OVC016
BECMG 1104/1106 25004KT 9000 -SHRA FEW013 BKN020 BKN035

Related Locations
Nearby:
Farthest:INC: 12370 mi / 19908 km
Yinchuan [Hedong], 64, CN

Find:

   beyond  
but within

Other Information
Maps:
NOTAMs:
Links:
Sources:

  
  • flag of Chile
  • flag of Araucanía
  

Sectional Chart

Flight Planning
at skyvector.com

Satellite Image

Google Maps Satellite view

 

Copyright © 2004-2018 Karl L. Swartz. All rights reserved.
The Great Circle Mapper name and logo are trademarks of the Great Circle Mapper.
All other trademarks mentioned herein belong to their respective owners.
Please see credits for attibutions and further copyright information.

  Follow gcmap on Facebook Follow gcmap on Twitter Follow gcmap on Google+ GCmap on LinkedIn

hCard Microformat

Geo Microformat